STARLINK-30529, 58047

Orbit data source: Space-Track

STARLINK-30529, 58047 is a payload satellite owned by SpaceX/Seattle (US) in LEO that was launched on Mon, 09 Oct 2023 UTC via an FALCON 9 launch vehicle from the Air Force Western Test Range (AFWTR). Payload-class satellites include a variety of spacecraft equipped with specific instruments for various scientific and technological missions. These include communications satellites like Starlink; space stations such as the ISS; scientific satellites like the Hubble; Earth observation satellites from companies like Planet Labs, Umbra, and HawkEye 360; GPS; miniature CubeSats for education and research; and military/defense satellites.

Loading next visibility...
Identifier
58047, 2023-156V
Orbit
LEO
Country
Flag of USUS
Related business
Manufacturer
SpaceX/Seattle
Mission
Operational Commercial Communications
Bus & Motor
STARLINK V2M, Unknown motor
Mass
730 kg wet, ~700 kg dry
Launch date (UTC)
2023-10-09 (2 years ago)
Launch vehicle
FALCON 9
Launch site
Air Force Western Test Range (AFWTR)
Object type
Payload
Rocket body
Debris
Shape & HBR
Box + 2 Pan, 17.7 m
Radar Cross Section
33.884 m², Large (>1 m²)

Expand to show TLE details & history
Last TLE update: 18 hours ago

TLE from 18 hours ago
0 STARLINK-30529
1 58047U 23156V   25348.87986294  .00001438  00000-0  60678-4 0  9993
2 58047  53.1590 202.4147 0001226  83.5964 276.5176 15.30194049121997
Epoch: 2025-12-14T21:07Z
TLE epoch observation values (Epoch: 2025-12-14T21:07:00.158Z)
Latitude
-0.00002°
Longitude
161.87758°
Altitude
476.037 km
Speed
7.629 km/s
True Right ascension
13h 29m 39s
True Declination
0° 00' 00"
Sunlit
Object was in daylight at epoch
Visualization orbit readout
Latitude
Unknown
Longitude
Unknown
Altitude
Unknown
Speed
Unknown
Apparent Right ascension
Unknown
Apparent Declination
Unknown
Sunlit
N/A
Visualization observer readout
Local Sidereal Time
13:18:59
Azimuth
Unknown
Elevation
Unknown
Doppler factor
Unknown
Orbital elements
Apogee altitude
476.33 km
Perigee altitude
474.649 km
Semi-major axis
6,853.626 km
Eccentricity
0.00012
Inclination
53.159°
RAAN
202.4147°
Arg. of periapsis
83.5964°
True anomaly
276.50364°
Mean anomaly
276.5176°
Eccentric anomaly
276.51062°
Mean motion
3.82527 °/min
Orbital period
94.11 mins
BSTAR
0.000060678
Loading maneuver chart data...
Computing Atmospheric mass density...
Loading historical data...
Loading historical data...
Loading historical data...
Loading historical data...
Loading historical data...
Loading historical data...
Loading historical data...

Documentation

Showing up to 5 results
|